    Observer details:
    160 Castelmartini.  Observers M. Jaeger, E. Prosperi, S. Prosperi,
        W. Vollmann.  Measurer E. Prosperi.  0.35-m f/10 Schmidt-Cassegrain + CCD.
    203 GiaGa Observatory.  Observers S. Foglia, G. Galli.  Measurer G. Galli.
        0.36-m f/5.76 Schmidt-Cassegrain + CCD.
    204 Schiaparelli Observatory.  Observer L. Buzzi.  0.84-m f/3.5 reflector +
        CCD.
    246 Klet Observatory-KLENOT.  Observers M. Tichy, J. Ticha.  1.06-m f/5.2
        reflector + 2048x2048 CCD.
    595 Farra dIsonzo.  Observer F. Piani.  0.61-m f/4.5 reflector + CCD.
    703 Catalina Sky Survey.  Observer B. M. Africano.  Measurers B. M. Africano,
        E. J. Christensen, G. A. Farneth, D. C. Fuls, A. R. Gibbs, A. D. Grauer,
        H. Groeller, R. A. Kowalski, S. M. Larson, G. J. Leonard, T. A. Pruyne,
        R. L. Seaman, F. C. Shelly.  0.68-m Schmidt + 10K CCD.
    A17 Guidestar Observatory, Weinheim.  Observers M. Emmerich, S. Melchert.
        0.36-m f/6 Schmidt-Cassegrain + CCD.
    C95 SATINO Remote Observatory, Haute Provence.  Observer J. Jahn.  0.60-m
        f/3.2 Newtonian reflector + CCD.
    H21 Astronomical Research Observatory, Westfield.  Observer R. Holmes.
        Measurers S. Foglia, L. Buzzi, T. Linder, R. Holmes.  0.76-m f/3.0
        astrograph + CCD.
    I52 Steward Observatory, Mt. Lemmon Station.  Observer B. M. Africano.
        Measurers B. M. Africano, E. J. Christensen, G. A. Farneth, D. C. Fuls,
        A. R. Gibbs, A. D. Grauer, H. Groeller, R. A. Kowalski, S. M. Larson,
        G. J. Leonard, T. A. Pruyne, R. L. Seaman, F. C. Shelly.  1.0-m reflector
        + CCD.
    K38 M57 Observatory, Saltrio.  Observer G. Baj.  0.3-m f/5.5 Ritchey-Chretien
        + CCD.
    K51 Osservatorio del Celado, Castello Tesino.  Observers G. Favero,
        R. Furgoni.  Measurer R. Furgoni.  0.80-m f/4 reflector + CCD.
    K61 Rokycany Observatory.  Observer M. Adamovsky.  0.51-m f/6.8 reflector +
        CCD.
    K87 Dettelbach Vineyard Observatory.  Observer B. Haeusler.  0.30-m
        Schmidt-Cassegrain + CCD.
    K88 GINOP-KHK, Piszkesteto.  Observer K. Sarneczky.  0.60-m Schmidt + CCD.
    L01 Visnjan Observatory, Tican.  Observers K. Korlevic, F. Valentine.
        Measurer K. Korlevic.  1.0-m f/2.9 reflector + CCD.
    L04 ROASTERR-1 Observatory, Cluj-Napoca.  Observer L. Hudin.  0.3-m f/5
        reflector + CCD.
    W34 Squirrel Valley Observatory, Columbus.  Observer R. L. Flynn.  0.2-m
        f/7.0 Schmidt-Cassegrain + CCD.
    Z80 Northolt Branch Observatory.  Observer G. Wells.  Measurers G. Wells,
        D. Bamberger.  0.25-m f/8.0 Ritchey-Chretien + CCD.
    Z99 Clixby Observatory, Cleethorpes.  Observer A. Mickleburgh.  0.36-m f/8
        Schmidt-Cassegrain + CCD.
    
    Orbital elements:
    2019 DV                                                  Earth MOID = 0.0968 AU
    Epoch 2019 Apr. 27.0 TT = JDT 2458600.5                 MPC
    M 240.57025              (2000.0)            P               Q
    n   1.05007380     Peri.  354.14043     +0.93055666     +0.33837563
    a   0.9586414      Node   343.78889     -0.31229293     +0.53404570
    e   0.1362115      Incl.   30.06891     -0.19114767     +0.77478844
    P   0.94           H   22.4           G   0.15           U   7
    Residuals in seconds of arc
    190226 703  0.5-  0.6-    190227 L04  0.3-  0.1-    190227 C95  0.3+  0.1-
    190226 703  0.3-  0.2+    190227 L04  0.1-  0.2-    190227 K87  0.6+  0.4-
    190226 703  0.4+  0.1+    190227 K38  0.3-  0.1-    190227 C95  0.2-  0.1-
    190226 703  0.3-  0.2+    190227 K51  0.3-  0.1+    190227 C95  0.1-  0.3-
    190226 I52  0.3+  0.0     190227 246  0.5+  0.0     190227 K87  0.8+  0.3+
    190226 I52  0.4+  0.3+    190227 K51  0.2-  0.1-    190227 C95  0.1-  0.0
    190226 I52  0.1-  0.0     190227 246  0.6+  0.4+    190227 K87  0.5-  0.6+
    190226 I52  0.0   0.2+    190227 246  0.7+  0.9+    190228 C95  0.1-  0.0
    190226 A17  0.3+  0.1+    190227 246  0.0   0.5+    190228 595  0.4+  0.3-
    190226 A17  0.3+  0.3-    190227 246  0.1-  0.7-    190228 595  0.0   0.3-
    190226 A17  0.0   0.3+    190227 K51  0.1-  0.1-    190228 595  0.2-  0.1+
    190226 Z99  0.2-  0.4-    190227 246  0.0   0.4-    190228 204  0.0   0.1+
    190226 Z99  0.1-  0.2-    190227 246  0.3-  0.1-    190228 204  0.1-  0.2-
    190226 Z99  0.3-  0.5-    190227 246  0.6+  0.5-    190228 204  0.3+  0.1-
    190226 K88  0.3+  0.4+    190227 246  0.3+  0.1-    190228 W34  0.1+  0.5+
    190226 K88  0.3+  0.4+    190227 K38  0.1-  0.3-    190228 W34  0.2+  1.2+
    190226 K88  0.3+  0.4+    190227 K38  0.4-  0.4-    190228 W34  0.4+  0.1-
    190227 L01  0.1-  0.2-    190227 160  0.7-  0.1+    190228 W34  0.2+  0.3-
    190227 L01  0.4-  0.1-    190227 160  0.5-  0.0     190228 I52  0.1-  0.0
    190227 L01  0.1-  0.2+    190227 160  0.5-  0.0     190228 I52  0.1-  0.1-
    190227 L01  0.3-  0.0     190227 160  0.4-  0.0     190228 I52  0.0   0.2+
    190227 L01  0.1+  0.0     190227 K38  0.1-  0.4-    190228 I52  0.1-  0.0
    190227 H21  0.0   0.0     190227 160  0.1+  0.1-    190228 W34  0.3-  0.8-
    190227 H21  0.0   0.1-    190227 203  0.1-  0.1+    190228 W34  0.3-  0.1-
    190227 K61  0.3+  0.5-    190227 203  0.1-  0.1+    190228 703 (0.1+  1.8+)
    190227 K61  0.1+  0.2-    190227 203  0.1-  0.0     190228 703  0.6-  0.5+
    190227 K61  0.0   0.3-    190227 Z80  0.1-  0.2-    190228 703  0.0   0.5+
    190227 K61  0.4+  0.5+    190227 Z80  0.1+  0.8+    190228 703  0.2-  0.3-
    190227 L04  0.2-  0.4+    190227 Z80  1.0+  0.1+
    
    Ephemeris:
    2019 DV                  a,e,i = 0.96, 0.14, 30                  q = 0.8281
    Date    TT    R. A. (2000) Decl.     Delta      r     Elong.  Phase     V
    2019 01 29    15 14 57.3 +46 19 46   0.3141  1.0737    97.8    65.3    22.3
    ...
    2019 02 13    14 23 17.9 +47 29 36   0.2041  1.0852   113.6    56.5    21.2
    ...
    2019 02 21    13 10 04.8 +46 20 08   0.1490  1.0883   128.8    45.1    20.2
    ...
    2019 02 27    11 39 20.3 +39 55 47   0.1172  1.0892   145.8    30.7    19.3
    2019 02 28    11 22 09.7 +37 57 15   0.1135  1.0892   148.9    28.0    19.1
    2019 03 01    11 04 53.7 +35 40 29   0.1103  1.0892   151.9    25.4    19.0
    ...
    2019 03 07    09 30 59.3 +17 16 25   0.1064  1.0884   153.6    23.9    18.8
    ...
    2019 03 15    08 13 11.9 -05 00 44   0.1381  1.0856   128.4    45.8    20.0
    ...
    2019 03 30    07 17 31.4 -22 30 59   0.2419  1.0744   101.8    65.5    21.8
    
    A. U. Tomatic                (C) Copyright 2019 MPC           M.P.E.C. 2019-D60
    

    Read MPEC 2019-D59 Read MPEC 2019-D61


    MPEC number:

    Enter an MPEC number in one of the following forms:

    • 1997-B01 (the full form)
    • J97B01 (the packed version of the full form)
    • B01 (the abbreviated form)